Back to catalog

STARLINK-33742

AliveCommunicationsVLEO
NORAD 63366·PAYLOAD·🇺🇸 United States

Launched Mar 26, 2025 from Vandenberg Space Force Base

Loading…

Next Passes (next 24 hours)

TLE

FreshSource: CelesTrak SupGP

Epoch: Sep 14, 2026, 21:19 UTC

1 63366C 25063D   26257.88868056  .00047489  00000+0  14022-2 0  2570
2 63366  53.1575 252.0679 0001289  91.2803 102.7796 15.34386770    13

Track STARLINK-33742 in real time with AllMySat

Download on the App Store